contact:dominique.lefevre@mio.osupytheas.fr, maurice.libes@osupytheas.fr, didier.mallarino@osupytheas.fr
Project:EMSO http://www.emso-fr.org/EMSO-France
Depth: 2436.0 m
Title:EMSO Ligure Ouest : Data MII capteur MICROCAT
DateTime_Computer,Latitude,Longitude,Temperature,Conductivity,Pressure,DateTime_Instrument
DateTime_Computer,Latitude,Longitude,degC,S m-1,dbar,DateTime_Instrument
2019-10-10T00:00:25Z,42.805,6.029,13.2982,4.59985,2469.914,2019-10-10T02:00:50Z
2019-10-10T00:03:28Z,42.805,6.029,13.2984,4.59994,2469.9,2019-10-10T02:03:53Z
2019-10-10T00:06:31Z,42.805,6.029,13.2976,4.59978,2469.923,2019-10-10T02:06:56Z
2019-10-10T00:09:34Z,42.805,6.029,13.2990,4.59998,2469.914,2019-10-10T02:09:59Z
2019-10-10T00:12:37Z,42.805,6.029,13.2984,4.59994,2469.937,2019-10-10T02:13:02Z
2019-10-10T00:15:41Z,42.805,6.029,13.2975,4.59999,2469.923,2019-10-10T02:16:06Z
2019-10-10T00:18:44Z,42.805,6.029,13.2976,4.60001,2469.9,2019-10-10T02:19:09Z
2019-10-10T00:21:47Z,42.805,6.029,13.2978,4.60007,2469.886,2019-10-10T02:22:12Z
2019-10-10T00:24:50Z,42.805,6.029,13.2984,4.60004,2469.914,2019-10-10T02:25:15Z
2019-10-10T00:27:54Z,42.805,6.029,13.2973,4.59999,2469.876,2019-10-10T02:28:19Z
2019-10-10T00:30:57Z,42.805,6.029,13.2991,4.59999,2469.9,2019-10-10T02:31:22Z
2019-10-10T00:34:00Z,42.805,6.029,13.2985,4.60008,2469.9,2019-10-10T02:34:25Z
2019-10-10T00:37:03Z,42.805,6.029,13.2965,4.59988,2469.89,2019-10-10T02:37:28Z
2019-10-10T00:40:06Z,42.805,6.029,13.2975,4.59997,2469.9,2019-10-10T02:40:31Z
2019-10-10T00:43:10Z,42.805,6.029,13.2968,4.59996,2469.937,2019-10-10T02:43:35Z
2019-10-10T00:46:13Z,42.805,6.029,13.2976,4.59992,2469.9,2019-10-10T02:46:38Z
2019-10-10T00:49:16Z,42.805,6.029,13.2973,4.60014,2469.89,2019-10-10T02:49:41Z
2019-10-10T00:52:19Z,42.805,6.029,13.2965,4.60001,2469.937,2019-10-10T02:52:44Z
2019-10-10T00:55:23Z,42.805,6.029,13.2976,4.59981,2469.9,2019-10-10T02:55:48Z
2019-10-10T00:58:26Z,42.805,6.029,13.2977,4.60001,2469.923,2019-10-10T02:58:51Z
2019-10-10T01:01:29Z,42.805,6.029,13.2981,4.59992,2469.9,2019-10-10T03:01:54Z
2019-10-10T01:04:32Z,42.805,6.029,13.2974,4.59994,2469.9,2019-10-10T03:04:57Z
2019-10-10T01:07:36Z,42.805,6.029,13.2978,4.59993,2469.914,2019-10-10T03:08:01Z
2019-10-10T01:10:39Z,42.805,6.029,13.2973,4.59991,2469.914,2019-10-10T03:11:04Z
2019-10-10T01:13:42Z,42.805,6.029,13.2977,4.59996,2469.9,2019-10-10T03:14:07Z
2019-10-10T01:16:45Z,42.805,6.029,13.2971,4.59998,2469.876,2019-10-10T03:17:10Z
2019-10-10T01:19:48Z,42.805,6.029,13.2969,4.59992,2469.937,2019-10-10T03:20:13Z
2019-10-10T01:22:52Z,42.805,6.029,13.2978,4.59989,2469.914,2019-10-10T03:23:17Z
2019-10-10T01:25:55Z,42.805,6.029,13.2989,4.59996,2469.923,2019-10-10T03:26:20Z
2019-10-10T01:28:58Z,42.805,6.029,13.2968,4.60000,2469.89,2019-10-10T03:29:23Z
2019-10-10T01:32:01Z,42.805,6.029,13.2962,4.59999,2469.9,2019-10-10T03:32:26Z
2019-10-10T01:35:04Z,42.805,6.029,13.2968,4.59979,2469.89,2019-10-10T03:35:29Z
2019-10-10T01:38:08Z,42.805,6.029,13.2974,4.59989,2469.923,2019-10-10T03:38:33Z
2019-10-10T01:41:11Z,42.805,6.029,13.2976,4.59986,2469.923,2019-10-10T03:41:36Z
2019-10-10T01:44:14Z,42.805,6.029,13.2973,4.59999,2469.96,2019-10-10T03:44:39Z
2019-10-10T01:47:17Z,42.805,6.029,13.2969,4.59985,2469.9,2019-10-10T03:47:42Z
2019-10-10T01:50:21Z,42.805,6.029,13.2969,4.59983,2469.937,2019-10-10T03:50:46Z
2019-10-10T01:53:24Z,42.805,6.029,13.2986,4.59999,2469.923,2019-10-10T03:53:49Z
2019-10-10T01:56:27Z,42.805,6.029,13.2966,4.59974,2469.914,2019-10-10T03:56:52Z
2019-10-10T01:59:30Z,42.805,6.029,13.2963,4.59984,2469.923,2019-10-10T03:59:55Z
2019-10-10T02:02:34Z,42.805,6.029,13.2974,4.59991,2469.937,2019-10-10T04:02:58Z
2019-10-10T02:05:37Z,42.805,6.029,13.2969,4.59996,2469.937,2019-10-10T04:06:02Z
2019-10-10T02:08:40Z,42.805,6.029,13.2963,4.59971,2469.923,2019-10-10T04:09:05Z
2019-10-10T02:11:43Z,42.805,6.029,13.2968,4.59971,2469.937,2019-10-10T04:12:08Z
2019-10-10T02:14:46Z,42.805,6.029,13.2962,4.59967,2469.937,2019-10-10T04:15:11Z
2019-10-10T02:17:50Z,42.805,6.029,13.2965,4.59971,2469.937,2019-10-10T04:18:15Z
2019-10-10T02:20:53Z,42.805,6.029,13.2964,4.59964,2469.914,2019-10-10T04:21:18Z
2019-10-10T02:23:56Z,42.805,6.029,13.2963,4.59970,2469.96,2019-10-10T04:24:21Z
2019-10-10T02:26:59Z,42.805,6.029,13.2978,4.59993,2469.923,2019-10-10T04:27:24Z
2019-10-10T02:30:02Z,42.805,6.029,13.2970,4.59976,2469.947,2019-10-10T04:30:27Z
2019-10-10T02:33:06Z,42.805,6.029,13.2969,4.59981,2469.96,2019-10-10T04:33:31Z
2019-10-10T02:36:09Z,42.805,6.029,13.2969,4.59982,2469.947,2019-10-10T04:36:34Z
2019-10-10T02:39:12Z,42.805,6.029,13.2979,4.59988,2469.923,2019-10-10T04:39:37Z
2019-10-10T02:42:15Z,42.805,6.029,13.2967,4.59974,2469.923,2019-10-10T04:42:40Z
2019-10-10T02:45:18Z,42.805,6.029,13.2971,4.59981,2469.947,2019-10-10T04:45:43Z
2019-10-10T02:48:22Z,42.805,6.029,13.2970,4.59989,2469.923,2019-10-10T04:48:47Z
2019-10-10T02:51:25Z,42.805,6.029,13.2971,4.59988,2469.947,2019-10-10T04:51:50Z
2019-10-10T02:54:28Z,42.805,6.029,13.2968,4.59990,2469.97,2019-10-10T04:54:53Z
2019-10-10T02:57:31Z,42.805,6.029,13.2971,4.59986,2469.937,2019-10-10T04:57:56Z
2019-10-10T03:00:34Z,42.805,6.029,13.2966,4.59987,2469.947,2019-10-10T05:00:59Z
2019-10-10T03:03:38Z,42.805,6.029,13.2974,4.59976,2469.937,2019-10-10T05:04:03Z
2019-10-10T03:06:41Z,42.805,6.029,13.2974,4.59987,2469.947,2019-10-10T05:07:06Z
2019-10-10T03:09:44Z,42.805,6.029,13.2971,4.59993,2469.947,2019-10-10T05:10:09Z
2019-10-10T03:12:47Z,42.805,6.029,13.2976,4.59986,2469.923,2019-10-10T05:13:12Z
2019-10-10T03:15:50Z,42.805,6.029,13.2968,4.59984,2469.947,2019-10-10T05:16:15Z
2019-10-10T03:18:54Z,42.805,6.029,13.2969,4.59981,2469.96,2019-10-10T05:19:19Z
2019-10-10T03:21:57Z,42.805,6.029,13.2970,4.59995,2470.007,2019-10-10T05:22:22Z
2019-10-10T03:25:00Z,42.805,6.029,13.2963,4.59971,2469.947,2019-10-10T05:25:25Z
2019-10-10T03:28:03Z,42.805,6.029,13.2967,4.59975,2469.97,2019-10-10T05:28:28Z
2019-10-10T03:31:07Z,42.805,6.029,13.2974,4.59991,2469.947,2019-10-10T05:31:32Z
2019-10-10T03:34:10Z,42.805,6.029,13.2968,4.59976,2469.984,2019-10-10T05:34:35Z
2019-10-10T03:37:13Z,42.805,6.029,13.2969,4.59976,2469.97,2019-10-10T05:37:38Z
2019-10-10T03:40:16Z,42.805,6.029,13.2968,4.59983,2469.97,2019-10-10T05:40:41Z
2019-10-10T03:43:19Z,42.805,6.029,13.2964,4.59974,2469.984,2019-10-10T05:43:44Z
2019-10-10T03:46:23Z,42.805,6.029,13.2972,4.59981,2469.947,2019-10-10T05:46:48Z
2019-10-10T03:49:26Z,42.805,6.029,13.2964,4.59971,2470.007,2019-10-10T05:49:51Z
2019-10-10T03:52:29Z,42.805,6.029,13.2969,4.59981,2469.993,2019-10-10T05:52:54Z
2019-10-10T03:55:33Z,42.805,6.029,13.2966,4.59978,2469.984,2019-10-10T05:55:58Z
2019-10-10T03:58:36Z,42.805,6.029,13.2968,4.59971,2469.984,2019-10-10T05:59:01Z
2019-10-10T04:01:39Z,42.805,6.029,13.2964,4.59973,2469.97,2019-10-10T06:02:04Z
2019-10-10T04:04:42Z,42.805,6.029,13.2968,4.59968,2469.984,2019-10-10T06:05:07Z
2019-10-10T04:07:46Z,42.805,6.029,13.2971,4.59980,2469.97,2019-10-10T06:08:11Z
2019-10-10T04:10:49Z,42.805,6.029,13.2974,4.59981,2469.97,2019-10-10T06:11:14Z
2019-10-10T04:13:52Z,42.805,6.029,13.2975,4.59982,2469.96,2019-10-10T06:14:17Z
2019-10-10T04:16:56Z,42.805,6.029,13.2965,4.59974,2469.97,2019-10-10T06:17:21Z
2019-10-10T04:19:59Z,42.805,6.029,13.2968,4.59988,2469.947,2019-10-10T06:20:24Z
2019-10-10T04:23:02Z,42.805,6.029,13.2971,4.59978,2469.993,2019-10-10T06:23:27Z
2019-10-10T04:26:05Z,42.805,6.029,13.2967,4.59987,2469.97,2019-10-10T06:26:30Z
2019-10-10T04:29:08Z,42.805,6.029,13.2966,4.59981,2469.97,2019-10-10T06:29:33Z
2019-10-10T04:32:12Z,42.805,6.029,13.2965,4.59973,2469.993,2019-10-10T06:32:37Z
2019-10-10T04:35:15Z,42.805,6.029,13.2966,4.59972,2469.984,2019-10-10T06:35:40Z
2019-10-10T04:38:18Z,42.805,6.029,13.2964,4.59968,2469.993,2019-10-10T06:38:43Z
2019-10-10T04:41:21Z,42.805,6.029,13.2965,4.59970,2470.007,2019-10-10T06:41:46Z
2019-10-10T04:44:25Z,42.805,6.029,13.2964,4.59969,2470.007,2019-10-10T06:44:50Z
2019-10-10T04:47:28Z,42.805,6.029,13.2964,4.59971,2469.97,2019-10-10T06:47:53Z
2019-10-10T04:50:31Z,42.805,6.029,13.2970,4.59971,2469.97,2019-10-10T06:50:56Z
2019-10-10T04:53:34Z,42.805,6.029,13.2968,4.59976,2469.984,2019-10-10T06:53:59Z
2019-10-10T04:56:37Z,42.805,6.029,13.2972,4.59986,2469.993,2019-10-10T06:57:02Z
2019-10-10T04:59:41Z,42.805,6.029,13.2979,4.59981,2469.984,2019-10-10T07:00:06Z
2019-10-10T05:02:44Z,42.805,6.029,13.2967,4.59982,2469.993,2019-10-10T07:03:09Z
2019-10-10T05:05:47Z,42.805,6.029,13.2965,4.59970,2469.97,2019-10-10T07:06:12Z
2019-10-10T05:08:50Z,42.805,6.029,13.2963,4.59972,2469.984,2019-10-10T07:09:15Z
2019-10-10T05:11:54Z,42.805,6.029,13.2962,4.59967,2470.007,2019-10-10T07:12:18Z
2019-10-10T05:14:57Z,42.805,6.029,13.2961,4.59968,2469.993,2019-10-10T07:15:22Z
2019-10-10T05:18:00Z,42.805,6.029,13.2967,4.59976,2469.984,2019-10-10T07:18:25Z
2019-10-10T05:21:03Z,42.805,6.029,13.2970,4.59978,2469.984,2019-10-10T07:21:28Z
2019-10-10T05:24:06Z,42.805,6.029,13.2962,4.59966,2469.97,2019-10-10T07:24:31Z
2019-10-10T05:27:10Z,42.805,6.029,13.2965,4.59970,2469.97,2019-10-10T07:27:35Z
2019-10-10T05:30:13Z,42.805,6.029,13.2967,4.59976,2469.97,2019-10-10T07:30:38Z
2019-10-10T05:33:16Z,42.805,6.029,13.2962,4.59979,2469.97,2019-10-10T07:33:41Z
2019-10-10T05:36:19Z,42.805,6.029,13.2972,4.59986,2470.03,2019-10-10T07:36:44Z
2019-10-10T05:39:23Z,42.805,6.029,13.2972,4.59984,2469.993,2019-10-10T07:39:48Z
2019-10-10T05:42:26Z,42.805,6.029,13.2966,4.59971,2469.993,2019-10-10T07:42:51Z
2019-10-10T05:45:29Z,42.805,6.029,13.2966,4.59983,2469.993,2019-10-10T07:45:54Z
2019-10-10T05:48:32Z,42.805,6.029,13.2974,4.59976,2469.97,2019-10-10T07:48:57Z
2019-10-10T05:51:35Z,42.805,6.029,13.2963,4.59965,2469.97,2019-10-10T07:52:00Z
2019-10-10T05:54:39Z,42.805,6.029,13.2964,4.59964,2469.984,2019-10-10T07:55:04Z
2019-10-10T05:57:42Z,42.805,6.029,13.2968,4.59976,2469.97,2019-10-10T07:58:07Z
2019-10-10T06:00:45Z,42.805,6.029,13.2968,4.59981,2469.97,2019-10-10T08:01:10Z
2019-10-10T06:03:48Z,42.805,6.029,13.2970,4.59981,2469.984,2019-10-10T08:04:13Z
2019-10-10T06:06:52Z,42.805,6.029,13.2966,4.59968,2469.947,2019-10-10T08:07:17Z
2019-10-10T06:09:55Z,42.805,6.029,13.2960,4.59966,2470.007,2019-10-10T08:10:20Z
2019-10-10T06:12:58Z,42.805,6.029,13.2973,4.59979,2469.923,2019-10-10T08:13:23Z
2019-10-10T06:16:01Z,42.805,6.029,13.2965,4.59972,2470.007,2019-10-10T08:16:26Z
2019-10-10T06:19:05Z,42.805,6.029,13.2966,4.59966,2469.97,2019-10-10T08:19:30Z
2019-10-10T06:22:08Z,42.805,6.029,13.2968,4.59969,2469.947,2019-10-10T08:22:33Z
2019-10-10T06:25:11Z,42.805,6.029,13.2961,4.59968,2469.984,2019-10-10T08:25:36Z
2019-10-10T06:28:14Z,42.805,6.029,13.2976,4.59983,2469.97,2019-10-10T08:28:39Z
2019-10-10T06:31:18Z,42.805,6.029,13.2972,4.59977,2469.984,2019-10-10T08:31:42Z
2019-10-10T06:34:21Z,42.805,6.029,13.2972,4.59983,2469.956,2019-10-10T08:34:46Z
2019-10-10T06:37:24Z,42.805,6.029,13.2968,4.59983,2469.984,2019-10-10T08:37:49Z
2019-10-10T06:40:27Z,42.805,6.029,13.2964,4.59970,2470.007,2019-10-10T08:40:52Z
2019-10-10T06:43:30Z,42.805,6.029,13.2969,4.59968,2469.947,2019-10-10T08:43:55Z
2019-10-10T06:46:34Z,42.805,6.029,13.2970,4.59982,2469.97,2019-10-10T08:46:59Z
2019-10-10T06:49:37Z,42.805,6.029,13.2965,4.59968,2469.993,2019-10-10T08:50:02Z
2019-10-10T06:52:40Z,42.805,6.029,13.2963,4.59973,2469.984,2019-10-10T08:53:05Z
2019-10-10T06:55:43Z,42.805,6.029,13.2974,4.59981,2469.956,2019-10-10T08:56:08Z
2019-10-10T06:58:47Z,42.805,6.029,13.2967,4.59972,2469.97,2019-10-10T08:59:12Z
2019-10-10T07:01:50Z,42.805,6.029,13.2966,4.59982,2469.993,2019-10-10T09:02:15Z
2019-10-10T07:04:53Z,42.805,6.029,13.2967,4.59970,2469.984,2019-10-10T09:05:18Z
2019-10-10T07:07:56Z,42.805,6.029,13.2974,4.59987,2469.947,2019-10-10T09:08:21Z
2019-10-10T07:11:00Z,42.805,6.029,13.2962,4.59970,2469.947,2019-10-10T09:11:25Z
2019-10-10T07:14:03Z,42.805,6.029,13.2966,4.59968,2469.947,2019-10-10T09:14:28Z
2019-10-10T07:17:06Z,42.805,6.029,13.2977,4.59986,2469.984,2019-10-10T09:17:31Z
2019-10-10T07:20:09Z,42.805,6.029,13.2967,4.59973,2469.947,2019-10-10T09:20:34Z
2019-10-10T07:23:12Z,42.805,6.029,13.2973,4.59986,2469.97,2019-10-10T09:23:37Z
2019-10-10T07:26:16Z,42.805,6.029,13.2964,4.59971,2469.984,2019-10-10T09:26:41Z
2019-10-10T07:29:19Z,42.805,6.029,13.2970,4.59975,2469.97,2019-10-10T09:29:44Z
2019-10-10T07:32:22Z,42.805,6.029,13.2981,4.59984,2469.984,2019-10-10T09:32:47Z
2019-10-10T07:35:25Z,42.805,6.029,13.2962,4.59990,2469.97,2019-10-10T09:35:50Z
2019-10-10T07:38:29Z,42.805,6.029,13.2968,4.59973,2469.97,2019-10-10T09:38:54Z
2019-10-10T07:41:32Z,42.805,6.029,13.2976,4.59973,2469.97,2019-10-10T09:41:57Z
2019-10-10T07:44:35Z,42.805,6.029,13.2982,4.59965,2470.007,2019-10-10T09:45:00Z
2019-10-10T07:47:38Z,42.805,6.029,13.2973,4.59985,2469.947,2019-10-10T09:48:03Z
2019-10-10T07:50:41Z,42.805,6.029,13.2975,4.59983,2469.947,2019-10-10T09:51:06Z
2019-10-10T07:53:45Z,42.805,6.029,13.2970,4.59983,2469.984,2019-10-10T09:54:10Z
2019-10-10T07:56:48Z,42.805,6.029,13.2960,4.59970,2469.923,2019-10-10T09:57:13Z
2019-10-10T07:59:51Z,42.805,6.029,13.2974,4.59980,2470.017,2019-10-10T10:00:16Z
2019-10-10T08:02:54Z,42.805,6.029,13.2975,4.59993,2469.984,2019-10-10T10:03:19Z
2019-10-10T08:05:57Z,42.805,6.029,13.2967,4.59973,2469.947,2019-10-10T10:06:22Z
2019-10-10T08:09:01Z,42.805,6.029,13.2971,4.59989,2469.96,2019-10-10T10:09:26Z
2019-10-10T08:12:04Z,42.805,6.029,13.2965,4.59976,2469.947,2019-10-10T10:12:29Z
2019-10-10T08:15:07Z,42.805,6.029,13.2974,4.59991,2469.947,2019-10-10T10:15:32Z
2019-10-10T08:18:10Z,42.805,6.029,13.2967,4.59981,2469.947,2019-10-10T10:18:35Z
2019-10-10T08:21:13Z,42.805,6.029,13.2969,4.59981,2469.923,2019-10-10T10:21:38Z
2019-10-10T08:24:17Z,42.805,6.029,13.2969,4.59986,2469.97,2019-10-10T10:24:42Z
2019-10-10T08:27:20Z,42.805,6.029,13.2974,4.59986,2469.947,2019-10-10T10:27:45Z
2019-10-10T08:30:23Z,42.805,6.029,13.2968,4.59989,2469.96,2019-10-10T10:30:48Z
2019-10-10T08:33:26Z,42.805,6.029,13.2967,4.59978,2469.923,2019-10-10T10:33:51Z
2019-10-10T08:36:30Z,42.805,6.029,13.2970,4.59981,2469.923,2019-10-10T10:36:55Z
2019-10-10T08:39:33Z,42.805,6.029,13.2971,4.59984,2469.96,2019-10-10T10:39:58Z
2019-10-10T08:42:36Z,42.805,6.029,13.2971,4.59982,2469.947,2019-10-10T10:43:01Z
2019-10-10T08:45:39Z,42.805,6.029,13.2973,4.59988,2469.984,2019-10-10T10:46:04Z
2019-10-10T08:48:42Z,42.805,6.029,13.2969,4.59991,2469.97,2019-10-10T10:49:07Z
2019-10-10T08:51:46Z,42.805,6.029,13.2972,4.59991,2469.937,2019-10-10T10:52:11Z
2019-10-10T08:54:49Z,42.805,6.029,13.2971,4.59993,2469.937,2019-10-10T10:55:14Z
2019-10-10T08:57:52Z,42.805,6.029,13.2968,4.59985,2469.937,2019-10-10T10:58:17Z
2019-10-10T09:00:55Z,42.805,6.029,13.2968,4.59986,2469.9,2019-10-10T11:01:20Z
2019-10-10T09:03:59Z,42.805,6.029,13.2967,4.59983,2469.9,2019-10-10T11:04:24Z
2019-10-10T09:07:02Z,42.805,6.029,13.2968,4.59986,2469.947,2019-10-10T11:07:27Z
2019-10-10T09:10:05Z,42.805,6.029,13.2974,4.59981,2469.923,2019-10-10T11:10:30Z
2019-10-10T09:13:08Z,42.805,6.029,13.2971,4.59996,2469.9,2019-10-10T11:13:33Z
2019-10-10T09:16:12Z,42.805,6.029,13.2974,4.59996,2469.9,2019-10-10T11:16:37Z
2019-10-10T09:19:15Z,42.805,6.029,13.2973,4.59991,2469.923,2019-10-10T11:19:40Z
2019-10-10T09:22:18Z,42.805,6.029,13.2978,4.59988,2469.923,2019-10-10T11:22:43Z
2019-10-10T09:25:21Z,42.805,6.029,13.2978,4.59978,2469.9,2019-10-10T11:25:46Z
2019-10-10T09:28:24Z,42.805,6.029,13.2979,4.59988,2469.937,2019-10-10T11:28:49Z
2019-10-10T09:31:28Z,42.805,6.029,13.2976,4.59994,2469.937,2019-10-10T11:31:53Z
2019-10-10T09:34:31Z,42.805,6.029,13.2973,4.59963,2469.923,2019-10-10T11:34:56Z
2019-10-10T09:37:34Z,42.805,6.029,13.2962,4.59979,2469.923,2019-10-10T11:37:59Z
2019-10-10T09:40:37Z,42.805,6.029,13.2967,4.59983,2469.923,2019-10-10T11:41:02Z
2019-10-10T09:43:40Z,42.805,6.029,13.2972,4.60005,2469.9,2019-10-10T11:44:05Z
2019-10-10T09:46:44Z,42.805,6.029,13.2971,4.60000,2469.914,2019-10-10T11:47:09Z
2019-10-10T09:49:47Z,42.805,6.029,13.2971,4.59994,2469.914,2019-10-10T11:50:12Z
2019-10-10T09:52:50Z,42.805,6.029,13.2974,4.59983,2469.9,2019-10-10T11:53:15Z
2019-10-10T09:55:53Z,42.805,6.029,13.2973,4.59996,2469.923,2019-10-10T11:56:18Z
2019-10-10T09:58:57Z,42.805,6.029,13.2973,4.60001,2469.923,2019-10-10T11:59:22Z
2019-10-10T10:02:00Z,42.805,6.029,13.2968,4.59988,2469.927,2019-10-10T12:02:25Z
2019-10-10T10:05:03Z,42.805,6.029,13.2970,4.59993,2469.923,2019-10-10T12:05:28Z
2019-10-10T10:08:06Z,42.805,6.029,13.2967,4.59971,2469.914,2019-10-10T12:08:31Z
2019-10-10T10:11:09Z,42.805,6.029,13.2963,4.59983,2469.914,2019-10-10T12:11:34Z
2019-10-10T10:14:13Z,42.805,6.029,13.2960,4.59971,2469.914,2019-10-10T12:14:38Z
2019-10-10T10:17:16Z,42.805,6.029,13.2977,4.59991,2469.9,2019-10-10T12:17:41Z
2019-10-10T10:20:19Z,42.805,6.029,13.2963,4.59970,2469.914,2019-10-10T12:20:44Z
2019-10-10T10:23:22Z,42.805,6.029,13.2981,4.60001,2469.9,2019-10-10T12:23:47Z
2019-10-10T10:26:26Z,42.805,6.029,13.2979,4.59966,2469.876,2019-10-10T12:26:51Z
2019-10-10T10:29:29Z,42.805,6.029,13.2961,4.59979,2469.89,2019-10-10T12:29:54Z
2019-10-10T10:32:32Z,42.805,6.029,13.2970,4.59983,2469.923,2019-10-10T12:32:57Z
2019-10-10T10:35:35Z,42.805,6.029,13.2974,4.59993,2469.876,2019-10-10T12:36:00Z
2019-10-10T10:38:38Z,42.805,6.029,13.2971,4.59981,2469.914,2019-10-10T12:39:03Z
2019-10-10T10:41:42Z,42.805,6.029,13.2977,4.59980,2469.937,2019-10-10T12:42:07Z
2019-10-10T10:44:45Z,42.805,6.029,13.2976,4.59967,2469.9,2019-10-10T12:45:10Z
2019-10-10T10:47:48Z,42.805,6.029,13.2976,4.59971,2469.89,2019-10-10T12:48:13Z
2019-10-10T10:50:52Z,42.805,6.029,13.2982,4.59986,2469.876,2019-10-10T12:51:17Z
2019-10-10T10:53:55Z,42.805,6.029,13.2976,4.59980,2469.914,2019-10-10T12:54:20Z
2019-10-10T10:56:58Z,42.805,6.029,13.2978,4.59979,2469.876,2019-10-10T12:57:23Z
2019-10-10T11:00:01Z,42.805,6.029,13.2971,4.59973,2469.876,2019-10-10T13:00:26Z
2019-10-10T11:03:05Z,42.805,6.029,13.2967,4.59981,2469.89,2019-10-10T13:03:30Z
2019-10-10T11:06:08Z,42.805,6.029,13.2973,4.59986,2469.914,2019-10-10T13:06:33Z
2019-10-10T11:09:11Z,42.805,6.029,13.2976,4.59965,2469.876,2019-10-10T13:09:36Z
2019-10-10T11:12:14Z,42.805,6.029,13.2976,4.59981,2469.9,2019-10-10T13:12:39Z
2019-10-10T11:15:17Z,42.805,6.029,13.2969,4.59968,2469.9,2019-10-10T13:15:42Z
2019-10-10T11:18:21Z,42.805,6.029,13.2974,4.59999,2469.914,2019-10-10T13:18:46Z
2019-10-10T11:21:24Z,42.805,6.029,13.2971,4.59984,2469.914,2019-10-10T13:21:49Z
2019-10-10T11:24:27Z,42.805,6.029,13.2967,4.59974,2469.914,2019-10-10T13:24:52Z
2019-10-10T11:27:30Z,42.805,6.029,13.2961,4.59961,2469.914,2019-10-10T13:27:55Z
2019-10-10T11:30:34Z,42.805,6.029,13.2974,4.59968,2469.914,2019-10-10T13:30:59Z
2019-10-10T11:33:37Z,42.805,6.029,13.2972,4.59980,2469.876,2019-10-10T13:34:02Z
2019-10-10T11:36:40Z,42.805,6.029,13.2974,4.59973,2469.853,2019-10-10T13:37:05Z
2019-10-10T11:39:43Z,42.805,6.029,13.2974,4.60003,2469.876,2019-10-10T13:40:08Z
2019-10-10T11:42:47Z,42.805,6.029,13.2964,4.59971,2469.89,2019-10-10T13:43:12Z
2019-10-10T11:45:50Z,42.805,6.029,13.2976,4.59975,2469.914,2019-10-10T13:46:15Z
2019-10-10T11:48:53Z,42.805,6.029,13.2983,4.59963,2469.9,2019-10-10T13:49:18Z
2019-10-10T11:51:56Z,42.805,6.029,13.2974,4.59990,2469.876,2019-10-10T13:52:21Z
2019-10-10T11:54:59Z,42.805,6.029,13.2979,4.59986,2469.867,2019-10-10T13:55:24Z
2019-10-10T11:58:03Z,42.805,6.029,13.2970,4.59980,2469.853,2019-10-10T13:58:28Z
2019-10-10T12:01:06Z,42.805,6.029,13.2967,4.59966,2469.9,2019-10-10T14:01:31Z
2019-10-10T12:04:09Z,42.805,6.029,13.2962,4.59984,2469.914,2019-10-10T14:04:34Z
2019-10-10T12:07:12Z,42.805,6.029,13.2971,4.59988,2469.9,2019-10-10T14:07:37Z
2019-10-10T12:10:15Z,42.805,6.029,13.2966,4.59963,2469.914,2019-10-10T14:10:40Z
2019-10-10T12:13:19Z,42.805,6.029,13.2972,4.59973,2469.89,2019-10-10T14:13:44Z
2019-10-10T12:16:22Z,42.805,6.029,13.2965,4.59976,2469.876,2019-10-10T14:16:47Z
2019-10-10T12:19:25Z,42.805,6.029,13.2964,4.59980,2469.9,2019-10-10T14:19:50Z
2019-10-10T12:22:28Z,42.805,6.029,13.2968,4.59978,2469.914,2019-10-10T14:22:53Z
2019-10-10T12:25:32Z,42.805,6.029,13.2971,4.59971,2469.867,2019-10-10T14:25:57Z
2019-10-10T12:28:35Z,42.805,6.029,13.2965,4.59973,2469.914,2019-10-10T14:29:00Z
2019-10-10T12:31:38Z,42.805,6.029,13.2965,4.59973,2469.9,2019-10-10T14:32:03Z
2019-10-10T12:34:41Z,42.805,6.029,13.2964,4.59975,2469.9,2019-10-10T14:35:06Z
2019-10-10T12:37:44Z,42.805,6.029,13.2971,4.59967,2469.876,2019-10-10T14:38:09Z
2019-10-10T12:40:48Z,42.805,6.029,13.2965,4.59971,2469.89,2019-10-10T14:41:13Z
2019-10-10T12:43:51Z,42.805,6.029,13.2964,4.59967,2469.9,2019-10-10T14:44:16Z
2019-10-10T12:46:54Z,42.805,6.029,13.2966,4.59975,2469.89,2019-10-10T14:47:19Z
2019-10-10T12:49:57Z,42.805,6.029,13.2972,4.59973,2469.914,2019-10-10T14:50:22Z
2019-10-10T12:53:01Z,42.805,6.029,13.2972,4.59983,2469.9,2019-10-10T14:53:25Z
2019-10-10T12:56:04Z,42.805,6.029,13.2976,4.59971,2469.914,2019-10-10T14:56:29Z
2019-10-10T12:59:07Z,42.805,6.029,13.2973,4.59966,2469.937,2019-10-10T14:59:32Z
2019-10-10T13:02:10Z,42.805,6.029,13.2968,4.59983,2469.9,2019-10-10T15:02:35Z
2019-10-10T13:05:13Z,42.805,6.029,13.2967,4.59982,2469.923,2019-10-10T15:05:38Z
2019-10-10T13:08:17Z,42.805,6.029,13.2974,4.59973,2469.914,2019-10-10T15:08:42Z
2019-10-10T13:11:20Z,42.805,6.029,13.2988,4.59982,2469.96,2019-10-10T15:11:45Z
2019-10-10T13:14:23Z,42.805,6.029,13.2980,4.60002,2469.937,2019-10-10T15:14:48Z
2019-10-10T13:17:26Z,42.805,6.029,13.2968,4.59968,2469.914,2019-10-10T15:17:51Z
2019-10-10T13:20:30Z,42.805,6.029,13.2980,4.59976,2469.937,2019-10-10T15:20:55Z
2019-10-10T13:23:33Z,42.805,6.029,13.2964,4.59983,2469.937,2019-10-10T15:23:58Z
2019-10-10T13:26:36Z,42.805,6.029,13.2965,4.59981,2469.914,2019-10-10T15:27:01Z
2019-10-10T13:29:39Z,42.805,6.029,13.2974,4.59978,2469.853,2019-10-10T15:30:04Z
2019-10-10T13:32:42Z,42.805,6.029,13.2973,4.59986,2469.96,2019-10-10T15:33:07Z
2019-10-10T13:35:46Z,42.805,6.029,13.2982,4.59979,2469.886,2019-10-10T15:36:11Z
2019-10-10T13:38:49Z,42.805,6.029,13.2967,4.59971,2469.9,2019-10-10T15:39:14Z
2019-10-10T13:41:52Z,42.805,6.029,13.2972,4.59978,2469.937,2019-10-10T15:42:17Z
2019-10-10T13:44:55Z,42.805,6.029,13.2974,4.59978,2469.9,2019-10-10T15:45:20Z
2019-10-10T13:47:59Z,42.805,6.029,13.2972,4.59973,2469.9,2019-10-10T15:48:24Z
2019-10-10T13:51:02Z,42.805,6.029,13.2967,4.59968,2469.937,2019-10-10T15:51:27Z
2019-10-10T13:54:05Z,42.805,6.029,13.2974,4.59980,2469.947,2019-10-10T15:54:30Z
2019-10-10T13:57:08Z,42.805,6.029,13.2974,4.59983,2469.96,2019-10-10T15:57:33Z
2019-10-10T14:00:11Z,42.805,6.029,13.2978,4.59979,2469.9,2019-10-10T16:00:36Z
2019-10-10T14:03:14Z,42.805,6.029,13.2986,4.59985,2469.937,2019-10-10T16:03:39Z
2019-10-10T14:06:18Z,42.805,6.029,13.2977,4.59976,2469.923,2019-10-10T16:06:43Z
2019-10-10T14:09:21Z,42.805,6.029,13.2976,4.59973,2469.96,2019-10-10T16:09:46Z
2019-10-10T14:12:24Z,42.805,6.029,13.2979,4.59983,2469.923,2019-10-10T16:12:49Z
2019-10-10T14:15:27Z,42.805,6.029,13.2982,4.59995,2469.933,2019-10-10T16:15:52Z
2019-10-10T14:18:31Z,42.805,6.029,13.2979,4.59989,2469.96,2019-10-10T16:18:56Z
2019-10-10T14:21:34Z,42.805,6.029,13.2984,4.59999,2469.937,2019-10-10T16:21:59Z
2019-10-10T14:24:37Z,42.805,6.029,13.2982,4.59986,2469.923,2019-10-10T16:25:02Z
2019-10-10T14:27:40Z,42.805,6.029,13.2980,4.59976,2469.96,2019-10-10T16:28:05Z
2019-10-10T14:30:43Z,42.805,6.029,13.2980,4.59963,2469.96,2019-10-10T16:31:08Z
2019-10-10T14:33:47Z,42.805,6.029,13.2972,4.59974,2469.984,2019-10-10T16:34:12Z
2019-10-10T14:36:50Z,42.805,6.029,13.2969,4.59997,2469.937,2019-10-10T16:37:15Z
2019-10-10T14:39:53Z,42.805,6.029,13.2971,4.59989,2469.96,2019-10-10T16:40:18Z
2019-10-10T14:42:56Z,42.805,6.029,13.2985,4.60008,2469.947,2019-10-10T16:43:21Z
2019-10-10T14:45:59Z,42.805,6.029,13.2997,4.60019,2470.007,2019-10-10T16:46:24Z
2019-10-10T14:49:03Z,42.805,6.029,13.2984,4.60018,2469.984,2019-10-10T16:49:28Z
2019-10-10T14:52:06Z,42.805,6.029,13.2976,4.59997,2469.947,2019-10-10T16:52:31Z
2019-10-10T14:55:09Z,42.805,6.029,13.2995,4.59983,2470.007,2019-10-10T16:55:34Z
2019-10-10T14:58:12Z,42.805,6.029,13.2991,4.59992,2469.984,2019-10-10T16:58:37Z
2019-10-10T15:01:15Z,42.805,6.029,13.2983,4.60022,2469.97,2019-10-10T17:01:40Z